This is the latest recevied weather packets stored in our database for station/object GUNLAK-WX. If no packets are shown the sender has not sent any weather packets the latest 10 day(s).
| Time | Temp. | Humidity | Pressure | Rain* | Wind** | Luminosity | Snow |
|---|---|---|---|---|---|---|---|
| 1776997885 | 20.56° C | 55% | 981.2 hPa | 0 mm | - | - | - |
| 1776996976 | 20° C | 55% | 981.1 hPa | 0 mm | - | - | - |
| 1776996091 | 20.56° C | 55% | 981.1 hPa | 0 mm | - | - | - |
| 1776995179 | 20.56° C | 54% | 981.2 hPa | 0 mm | - | - | - |
| 1776994290 | 21.11° C | 54% | 981.2 hPa | 0 mm | - | - | - |
| 1776993379 | 21.11° C | 54% | 981.1 hPa | 0 mm | - | - | - |
| 1776992495 | 21.67° C | 54% | 981.1 hPa | 0 mm | - | - | - |
| 1776991571 | 21.67° C | 48% | 981.7 hPa | 0 mm | - | - | - |
| 1776990684 | 22.78° C | 50% | 982.1 hPa | 0 mm | - | - | - |
| 1776989778 | 22.78° C | 50% | 982.1 hPa | 0 mm | - | - | - |
| 1776988906 | 23.89° C | 50% | 982.1 hPa | 0 mm | - | - | - |
| 1776987980 | 24.44° C | 41% | 982.9 hPa | 0 mm | - | - | - |
| 1776987086 | 25° C | 41% | 982.6 hPa | 0 mm | - | - | - |
| 1776986181 | 25° C | 41% | 982.6 hPa | 0 mm | - | - | - |
| 1776985294 | 25.56° C | 41% | 982.6 hPa | 0 mm | - | - | - |
| 1776984379 | 25.56° C | 46% | 982.9 hPa | 0 mm | - | - | - |
| 1776983489 | 25.56° C | 43% | 983.4 hPa | 0 mm | - | - | - |
| 1776982580 | 26.11° C | 43% | 983.4 hPa | 0 mm | - | - | - |
| 1776981697 | 26.11° C | 43% | 983.4 hPa | 0 mm | - | - | - |
| 1776980778 | 26.11° C | 46% | 984 hPa | 0 mm | - | - | - |
| 1776979889 | 26.11° C | 46% | 984.5 hPa | 0 mm | - | - | - |
| 1776978978 | 26.11° C | 46% | 984.5 hPa | 0 mm | - | - | - |
| 1776978096 | 26.11° C | 46% | 984.5 hPa | 0 mm | - | - | - |
| 1776977179 | 26.11° C | 48% | 984.6 hPa | 0 mm | - | - | - |
| 1776976291 | 26.11° C | 50% | 984.5 hPa | 0 mm | - | - | - |
* Rain latest hour (hover to see other rain measurements)
** Current wind speed in m/s (hover to see current wind gust speed)